Regional Weather Roundup
Issued by NWS

Home | Current Version | Previous Version | Text Only | Print | Product List | Glossary Off
Versions: 1 2 3 4 5 6 7 8 9 10 11 12 13 14 15 16 17 18 19 20 21 22 23 24 25 26 27 28 29 30 31 32 33 34 35 36 37 38 39 40 41 42 43 44 45 46 47 48 49 50

073
ASUS44 KLIX 011705
RWRLA
LOUISIANA WEATHER ROUNDUP
NATIONAL WEATHER SERVICE NEW ORLEANS LA
1200 PM CDT FRI AUG 01 2014

NOTE: "FAIR" INDICATES FEW OR NO CLOUDS BELOW 12,000 FEET WITH NO
      SIGNIFICANT WEATHER AND/OR OBSTRUCTIONS TO VISIBILITY.
      SKY/WX - SKY CONDITION AND SIGNIFICANT WEATHER.
      TMP - AIR TEMPERATURE.    DP   - DEWPOINT TEMPERATURE.
      RH  - RELATIVE HUMIDITY.  PRES - PRESSURE.
      HX  - HEAT INDEX.         WCI  - WIND CHILL INDEX.

*  THESE STATIONS ARE NOT NWS OR FAA STATIONS AND ARE NOT UNDER
   NWS QUALITY CONTROL.

LAZ040-048-061>063-065-066-069-011800-
SOUTHEAST LOUISIANA

CITY           SKY/WX    TMP DP  RH WIND       PRES   REMARKS
N.O. AUDUBON     N/A     88  68  50 MISG        N/A
N.O. INTL ARPT CLOUDY    84  69  60 S6        30.01S
N.O. LAKEFRONT PTSUNNY   85  69  58 E7        30.02S
N.O. DOWNTOWN* FAIR      88  66  48 SE3       30.01S
SLIDELL        CLOUDY    85  68  56 NE3       30.01F
BATON ROUGE    CLOUDY    82  74  76 E7        30.00F
BOOTHVILLE     PTSUNNY   83  67  58 CALM      30.02F
BELLE CHASSE   CLOUDY    85  68  56 E5        30.00F HAZE
BOGALUSA*      PTSUNNY   78  68  71 CALM      30.05S
GALLIANO*      NOT AVBL
NEW ROADS*     PTSUNNY   77  74  91 E6        30.00F FOG
GONZALES*      FAIR      83  73  71 S3        30.00F
HAMMOND*       CLOUDY    81  68  65 CALM      30.04S
HOUMA*         PTSUNNY   84  64  51 SE6       30.01F
PORT FOURCHON* SUNNY     84  70  61 SE7       30.02F

$$

LAZ041-044-053-054-011800-
SOUTHWEST LOUISIANA

CITY           SKY/WX    TMP DP  RH WIND       PRES   REMARKS
LAKE CHARLES   CLOUDY    82  76  81 VRB3      29.98S
LAFAYETTE      LGT RAIN  79  76  90 VRB3      30.00S
PATTERSON      CLOUDY    82  77  83 SE7       30.04S
SALT POINT       N/A     88  76  67 VRB5      29.99S HX  99
NEW IBERIA     CLOUDY    82  76  81 S9        30.00F
CHENAULT AIRPK PTSUNNY   81  73  78 SW6       29.99S

$$

LAZ027-028-011800-
CENTRAL LOUISIANA

CITY           SKY/WX    TMP DP  RH WIND       PRES   REMARKS
FORT POLK      CLOUDY    81  74  79 W6        29.97F
ALEXANDRIA INT LGT RAIN  77  75  93 S8        29.95F FOG
ALEXANDRIA     CLOUDY    75  72  90 E5        29.97F

$$

LAZ001-002-011800-
NORTHWEST LOUISIANA

CITY           SKY/WX    TMP DP  RH WIND       PRES   REMARKS
SHREVEPORT     DRIZZLE   70  68  93 N7        30.00R FOG
BARKSDALE AFB  NOT AVBL
DTN SHREVEPORT CLOUDY    69  67  93 NE6       30.01R FOG

$$

LAZ014-016-011800-
NORTHEAST LOUISIANA

CITY           SKY/WX    TMP DP  RH WIND       PRES   REMARKS
MONROE         RAIN      70  66  88 E7        30.02F FOG
TALLULAH       LGT RAIN  71  67  87 SE6       30.04S

$$




USA.gov is the U.S. government's official web portal to all federal, state and local government web resources and services.